Logansport, IN

10:48 PM EDT on August 29, 2016 (GMT -0400)
Logansport Municipal

Weather History for KGGP - January, 2013

Change the Weather History Date:

Monday, January 28, 2013

  Actual Average Record
Temperature  
Mean Temperature 40 °F -  
Max Temperature 48 °F 34 °F 48 °F (2013)
Min Temperature 33 °F 14 °F -18 °F (2014)
Degree Days  
Heating Degree Days 24    
Moisture  
Dew Point 43 °F    
Average Humidity 97    
Maximum Humidity 100    
Minimum Humidity 93    
Precipitation  
Precipitation 0.04 in - - ()
Sea Level Pressure  
Sea Level Pressure 29.96 in    
Wind  
Wind Speed 12 mph (SSW)    
Max Wind Speed 17 mph    
Max Gust Speed 24 mph    
Visibility 2 miles    
Events Fog , Rain    
Averages and records for this station are not official NWS values.
T = Trace of Precipitation, MM = Missing Value Source: NWS Daily Summary

Daily Weather History Graph

Daily Weather History Graph

Search for Another Location

Airport or City:

Trip Planner

Search our weather history database for the weather conditions in past years. The results will help you decide how hot, cold, wet, or windy it might be!

Date:

Astronomy

Jan. 28, 2013 Rise Set
Actual Time 7:58 AM EST 5:58 PM EST
Civil Twilight 7:29 AM EST 6:27 PM EST
Nautical Twilight 6:56 AM EST 7:00 PM EST
Astronomical Twilight 6:24 AM EST 7:33 PM EST
Moon 7:53 PM EST (1/28) 8:23 AM EST (1/28)
Length of Visible Light 10h 58m
Length of Day
9h 59m
Full, 98% of the Moon is Illuminated
Jan 28
Full
Feb 3
Last Quarter
Feb 10
New
Feb 17
First Quarter
Feb 25
Full

Hourly Weather History & Observations

Time (EST) Temp. Windchill Dew Point Humidity Pressure Visibility Wind Dir Wind Speed Gust Speed Precip Events Conditions
12:15 AM 33.8 °F 23.9 °F 33.8 °F 100% 30.04 in 5.0 mi SSE 15.0 mph - N/A   Overcast
12:35 AM 35.6 °F 26.6 °F 33.8 °F 93% 30.03 in 4.0 mi SSE 13.8 mph - N/A   Overcast
12:55 AM 35.6 °F 26.2 °F 33.8 °F 93% 30.02 in 2.5 mi South 15.0 mph 24.2 mph N/A   Overcast
1:15 AM 35.6 °F 27.1 °F 35.6 °F 100% 30.02 in 1.8 mi South 12.7 mph - N/A   Overcast
1:35 AM 35.6 °F 26.2 °F 35.6 °F 100% 30.00 in 1.2 mi South 15.0 mph - N/A   Overcast
1:55 AM 35.6 °F 27.1 °F 35.6 °F 100% 30.00 in 2.0 mi South 12.7 mph - N/A   Overcast
2:15 AM 37.4 °F 30.8 °F 35.6 °F 93% 30.01 in 2.0 mi South 9.2 mph - N/A   Overcast
2:35 AM 35.6 °F 29.2 °F 35.6 °F 100% 30.00 in 1.8 mi South 8.1 mph - N/A   Overcast
2:55 AM 37.4 °F 31.4 °F 37.4 °F 100% 29.99 in 2.5 mi South 8.1 mph - N/A   Overcast
3:15 AM 37.4 °F 30.8 °F 37.4 °F 100% 29.99 in 2.5 mi South 9.2 mph - N/A   Overcast
4:15 AM 41.0 °F 33.9 °F 41.0 °F 100% 29.96 in 3.0 mi SSW 12.7 mph - N/A   Overcast
4:35 AM 42.8 °F 35.8 °F 42.8 °F 100% 29.95 in 5.0 mi SSW 13.8 mph - N/A   Overcast
5:15 AM 44.6 °F 37.4 °F 42.8 °F 93% 29.95 in 3.0 mi SSW 16.1 mph - 0.01 in Rain Heavy Rain
5:35 AM 44.6 °F 37.8 °F 42.8 °F 93% 29.95 in 2.5 mi SW 15.0 mph 20.7 mph 0.01 in   Heavy Drizzle
5:55 AM 44.6 °F 38.1 °F 42.8 °F 93% 29.95 in 3.0 mi SW 13.8 mph - 0.02 in   Light Drizzle
6:15 AM 44.6 °F 37.2 °F 42.8 °F 93% 29.94 in 5.0 mi SSW 17.3 mph 21.9 mph N/A   Overcast
6:55 AM 44.6 °F 37.4 °F 42.8 °F 93% 29.94 in 5.0 mi SSW 16.1 mph 21.9 mph N/A   Overcast
7:15 AM 44.6 °F 37.4 °F 42.8 °F 93% 29.93 in 5.0 mi SSW 16.1 mph - N/A   Overcast
7:35 AM 44.6 °F 37.4 °F 42.8 °F 93% 29.94 in 7.0 mi SSW 16.1 mph 21.9 mph N/A   Overcast
7:55 AM 44.6 °F 38.1 °F 44.6 °F 100% 29.94 in 7.0 mi SSW 13.8 mph - N/A   Overcast
8:15 AM 44.6 °F 38.4 °F 42.8 °F 93% 29.94 in 2.0 mi SSW 12.7 mph - N/A Rain Light Rain
8:35 AM 44.6 °F 38.4 °F 44.6 °F 100% 29.94 in 4.0 mi SSW 12.7 mph - N/A   Overcast
8:55 AM 44.6 °F 37.8 °F 44.6 °F 100% 29.94 in 4.0 mi SW 15.0 mph - N/A Rain Light Rain
9:15 AM 46.4 °F 40.1 °F 44.6 °F 93% 29.94 in 4.0 mi SW 15.0 mph - 0.01 in   Overcast
9:35 AM 46.4 °F 40.4 °F 44.6 °F 93% 29.95 in 4.0 mi SW 13.8 mph - 0.01 in   Overcast
9:55 AM 46.4 °F 40.7 °F 44.6 °F 93% 29.95 in 5.0 mi SW 12.7 mph - 0.01 in   Overcast
10:15 AM 46.4 °F 40.7 °F 44.6 °F 93% 29.95 in 5.0 mi SW 12.7 mph - N/A   Overcast
10:35 AM 46.4 °F 39.8 °F 44.6 °F 93% 29.95 in 5.0 mi SSW 16.1 mph - N/A   Overcast
10:55 AM 46.4 °F 39.8 °F 44.6 °F 93% 29.96 in 5.0 mi SSW 16.1 mph - N/A   Overcast
11:15 AM 46.4 °F 40.1 °F 46.4 °F 100% 29.96 in 4.0 mi SW 15.0 mph 21.9 mph 0.01 in   Light Drizzle
11:35 AM 46.4 °F 40.4 °F 46.4 °F 100% 29.97 in 5.0 mi SW 13.8 mph - 0.01 in   Overcast
11:55 AM 46.4 °F 40.1 °F 46.4 °F 100% 29.97 in 4.0 mi SW 15.0 mph - 0.01 in   Overcast
12:15 PM 46.4 °F 39.8 °F 46.4 °F 100% 29.96 in 4.0 mi SSW 16.1 mph - N/A   Overcast
12:35 PM 48.2 °F - 46.4 °F 93% 29.96 in 5.0 mi SW 13.8 mph - N/A   Overcast
12:55 PM 46.4 °F 40.1 °F 46.4 °F 100% 29.96 in 5.0 mi SW 15.0 mph - N/A   Overcast
1:15 PM 46.4 °F 40.7 °F 46.4 °F 100% 29.95 in 3.0 mi SW 12.7 mph - N/A   Drizzle
1:35 PM 46.4 °F 40.7 °F 46.4 °F 100% 29.94 in 2.0 mi SW 12.7 mph - N/A   Drizzle
1:55 PM 46.4 °F 41.1 °F 46.4 °F 100% 29.94 in 1.5 mi SW 11.5 mph - N/A   Drizzle
2:15 PM 46.4 °F 41.1 °F 46.4 °F 100% 29.94 in 1.5 mi SW 11.5 mph - N/A   Light Drizzle
2:35 PM 46.4 °F 41.9 °F 46.4 °F 100% 29.94 in 1.5 mi SW 9.2 mph - N/A   Light Drizzle
2:55 PM 46.4 °F 42.4 °F 46.4 °F 100% 29.94 in 1.0 mi SW 8.1 mph - N/A Rain Light Rain
3:15 PM 46.4 °F 42.4 °F 46.4 °F 100% 29.94 in 0.5 mi SW 8.1 mph - N/A Rain Light Rain
3:35 PM 46.4 °F 41.9 °F 46.4 °F 100% 29.94 in 0.5 mi SW 9.2 mph - N/A Fog Fog
3:55 PM 46.4 °F 42.9 °F 46.4 °F 100% 29.95 in 0.2 mi SW 6.9 mph - N/A Fog Fog
4:15 PM 46.4 °F 42.9 °F 46.4 °F 100% 29.96 in 0.2 mi SW 6.9 mph - N/A Fog Fog
4:35 PM 46.4 °F 43.5 °F 46.4 °F 100% 29.96 in 0.2 mi SW 5.8 mph - N/A Fog Fog
4:55 PM 46.4 °F 43.5 °F 44.6 °F 93% 29.96 in 0.2 mi SW 5.8 mph - N/A Fog Fog
5:15 PM 46.4 °F 42.4 °F 44.6 °F 93% 29.96 in 0.2 mi SW 8.1 mph - N/A Fog Fog
5:35 PM 46.4 °F 42.9 °F 44.6 °F 93% 29.96 in 0.2 mi SSW 6.9 mph - N/A Fog Fog
6:15 PM 44.6 °F 43.1 °F 42.8 °F 93% 29.97 in 0.2 mi SSW 3.5 mph - N/A Fog Fog
6:35 PM 44.6 °F 41.4 °F 44.6 °F 100% 29.98 in 0.2 mi SSW 5.8 mph - N/A Fog Fog
6:55 PM 42.8 °F 39.3 °F 42.8 °F 100% 29.98 in 0.2 mi SSW 5.8 mph - N/A Fog Fog
7:15 PM 44.6 °F 40.7 °F 44.6 °F 100% 29.98 in 0.2 mi South 6.9 mph - N/A Fog Fog
7:35 PM 44.6 °F 40.7 °F 44.6 °F 100% 29.98 in 0.2 mi South 6.9 mph - N/A Fog Fog
7:55 PM 44.6 °F 41.4 °F 44.6 °F 100% 29.98 in 0.2 mi South 5.8 mph - N/A Fog Fog
8:15 PM 44.6 °F 40.2 °F 44.6 °F 100% 29.98 in 0.2 mi South 8.1 mph - N/A Fog Fog
8:35 PM 44.6 °F 40.7 °F 44.6 °F 100% 29.97 in 0.2 mi South 6.9 mph - N/A Fog Fog
8:55 PM 44.6 °F 40.2 °F 44.6 °F 100% 29.97 in 0.2 mi South 8.1 mph - N/A Fog Fog
9:15 PM 44.6 °F 40.2 °F 44.6 °F 100% 29.97 in 0.2 mi South 8.1 mph - N/A Fog Fog
9:35 PM 44.6 °F 40.7 °F 44.6 °F 100% 29.97 in 0.2 mi South 6.9 mph - N/A Fog Fog
9:55 PM 44.6 °F 40.7 °F 44.6 °F 100% 29.98 in 0.2 mi South 6.9 mph - N/A Fog Fog
10:15 PM 44.6 °F 39.7 °F 44.6 °F 100% 29.97 in 0.2 mi South 9.2 mph - N/A Fog Fog
10:35 PM 44.6 °F 40.2 °F 44.6 °F 100% 29.97 in 0.2 mi South 8.1 mph - N/A Fog Fog
10:55 PM 46.4 °F 42.9 °F 44.6 °F 93% 29.96 in 0.2 mi South 6.9 mph - N/A Fog Fog
11:15 PM 46.4 °F 41.9 °F 44.6 °F 93% 29.96 in 0.2 mi South 9.2 mph - N/A Fog Fog
11:35 PM 46.4 °F 41.5 °F 46.4 °F 100% 29.94 in 0.2 mi South 10.4 mph - N/A Fog Fog
11:55 PM 46.4 °F 41.9 °F 46.4 °F 100% 29.94 in 0.2 mi SSE 9.2 mph - N/A Fog Fog